sat.trackr.live / text

‹ back to catalog

CAS500-2

NORAD 69013 · 2026-100AK

PAYLOAD ACTIVE UNKNOWN

§ Identity

Operator
Country
SKOR
Launch date
2026-05-03
Launch site
AFWTR
Launch vehicle
Mass (kg)
RCS (m²)

Purposes: earth_obs

External: N2YO · Heavens-Above · Gunter

§ Orbital elements

Epoch: 2026-09-20T04:28:22.560672Z

Period
94.72 min
Inclination
97.3749°
Eccentricity
0.0010861
Mean motion
15.20290474 rev/d
Perigee alt
497.5 km
Apogee alt
512.4 km
Semi-major
6,883.1 km
B*
1.8213e-4
RAAN
159.0904°
Arg perigee
50.8419°
Mean anomaly
309.3780°
Rev number
2,124

§ Raw data

CAS500-21 69013U 26100AK  26263.18637223  .00003893  00000+0  18213-3 0  99992 69013  97.3749 159.0904 0010861  50.8419 309.3780 15.20290474 21244

JSON: /api/v1/satellites/69013 · /tle

For live sub-satellite position, see the globe view (requires WebGL).

§ Visibility from observer

Set your observer location to see the next 7 days of passes ≥ 10°. The values pass through the URL so the page stays shareable.

No JS? Fill the form by hand. The geolocation button needs JavaScript.